EW0401 Weather Reports


time (UTC)temp
F
wind
direction
speed
knots
gust
knots
rain 1hr
in
rain 24hr
in
rain mn
in
humidity
%
barometer
mb
20260506173112 80 0 0.0 1.7 0.00 0.01 0.01 87 1011.5
20260506171559 79 0 0.0 1.7 0.01 0.01 0.01 88 1011.7
20260506170057 79 348 0.0 1.7 0.01 0.01 0.01 89 1011.7
20260506164555 78 0 0.0 1.7 0.01 0.01 0.01 89 1011.8
20260506163102 78 0 0.0 1.7 0.01 0.01 0.01 88 1011.7
20260506161559 78 0 0.0 2.6 0.00 0.00 0.00 88 1011.7
20260506160052 78 197 0.0 2.6 0.00 0.00 0.00 88 1011.5
20260506154601 78 0 0.0 2.6 0.00 0.00 0.00 87 1011.4
20260506153054 79 0 0.0 2.6 0.00 0.00 0.00 87 1011.1
20260506151557 79 192 0.0 3.5 0.00 0.00 0.00 87 1011.0
20260506150059 79 0 0.0 5.2 0.00 0.00 0.00 88 1010.6
20260506144554 79 0 0.0 1.7 0.00 0.00 0.00 88 1010.4
20260506143054 78 0 0.0 5.2 0.00 0.00 0.00 88 1010.6
20260506141554 78 263 0.0 2.6 0.00 0.00 0.00 89 1010.7
20260506140101 77 0 0.0 2.6 0.00 0.00 0.00 90 1010.6
20260506134556 77 0 0.0 3.5 0.00 0.00 0.00 90 1010.6
20260506133100 76 261 0.0 0.9 0.00 0.00 0.00 90 1010.8
20260506131552 76 0 0.0 1.7 0.00 0.00 0.00 90 1010.7
20260506130056 76 0 0.0 0.0 0.00 0.00 0.00 90 1010.8
20260506124559 76 0 0.0 1.7 0.00 0.00 0.00 90 1010.8
20260506124508 76 190 0.0 1.7 0.00 0.00 0.00 91 1010.3
20260506123053 76 0 0.0 0.0 0.00 0.00 0.00 90 1010.5
20260506121553 76 0 0.0 1.7 0.00 0.00 0.00 90 1010.3
20260506120108 75 0 0.0 1.7 0.00 0.00 0.00 90 1010.2
20260506114609 75 0 0.0 2.6 0.00 0.00 0.00 90 1009.9
20260506113050 75 0 0.0 2.6 0.00 0.00 0.00 90 1009.7
20260506111556 75 0 0.0 0.9 0.00 0.00 0.00 90 1009.4
20260506110057 75 0 0.0 1.7 0.00 0.00 0.00 90 1009.5
20260506104552 75 0 0.0 2.6 0.00 0.00 0.00 90 1009.5
20260506103055 75 0 0.0 1.7 0.00 0.00 0.00 89 1009.4
20260506101553 75 0 0.0 2.6 0.00 0.00 0.00 89 1009.4
20260506100055 76 0 0.0 1.7 0.00 0.00 0.00 89 1009.4
20260506094552 76 0 0.0 2.6 0.00 0.00 0.00 89 1009.3
20260506093107 76 0 0.0 1.7 0.00 0.00 0.00 89 1009.3
20260506091554 76 0 0.0 0.0 0.00 0.00 0.00 89 1009.5
20260506090058 76 0 0.0 0.0 0.00 0.00 0.00 88 1009.6
20260506084554 76 0 0.0 0.9 0.00 0.00 0.00 88 1009.7
20260506083055 76 0 0.0 1.7 0.00 0.00 0.00 88 1009.8
20260506081553 76 0 0.0 0.0 0.00 0.00 0.00 88 1009.7
20260506080111 76 0 0.0 1.7 0.00 0.00 0.00 88 1009.8
20260506073105 76 0 0.0 3.5 0.00 0.00 0.00 88 1010.2
20260506071557 76 256 0.0 3.5 0.00 0.00 0.00 88 1010.2
20260506061601 76 0 0.0 5.2 0.00 0.00 0.00 88 1010.4
20260506044605 77 0 0.0 1.7 0.00 0.00 0.00 87 1010.7
20260506043053 77 105 0.0 3.5 0.00 0.00 0.00 87 1010.6
20260506041605 77 0 0.0 5.2 0.00 0.00 0.00 87 1010.4
20260506040100 77 0 0.0 4.3 0.00 0.00 0.00 87 1010.3
20260506034558 77 0 0.0 3.5 0.00 0.00 0.00 87 1010.3
20260506033056 77 0 0.0 1.7 0.00 0.00 0.00 88 1010.2
20260506031556 77 0 0.0 1.7 0.00 0.00 0.00 87 1010.0
20260506030054 77 0 0.0 3.5 0.00 0.00 0.00 88 1009.9
20260506024608 77 238 0.0 3.5 0.00 0.00 0.00 88 1009.5
20260506023057 77 0 0.0 2.6 0.00 0.00 0.00 87 1009.3
20260506021553 77 0 0.0 1.7 0.00 0.00 0.00 87 1009.1
20260506020117 77 0 0.0 3.5 0.00 0.00 0.00 87 1009.0
20260506014554 77 0 0.9 6.1 0.00 0.00 0.00 87 1008.8
20260506013051 77 234 0.0 1.7 0.00 0.00 0.00 87 1008.6
20260506011552 77 244 0.0 2.6 0.00 0.00 0.00 86 1008.6
20260506010053 77 186 0.0 4.3 0.00 0.00 0.00 86 1008.6
20260506004550 78 0 0.0 3.5 0.00 0.00 0.00 86 1008.3
20260506003053 78 213 0.0 7.0 0.00 0.00 0.00 86 1008.2
20260506001602 78 188 0.0 3.5 0.00 0.00 0.00 85 1008.2
20260506000113 79 282 0.0 2.6 0.00 0.00 0.00 85 1008.0
20260505234552 79 0 0.9 6.1 0.00 0.00 0.00 85 1008.2
20260505233053 79 226 0.0 4.3 0.00 0.00 0.00 84 1008.3
20260505231556 79 290 0.9 5.2 0.00 0.00 0.00 84 1008.3
20260505230052 80 0 0.0 6.1 0.00 0.00 0.00 84 1008.3
20260505224552 80 0 1.7 9.6 0.00 0.00 0.00 84 1008.2
20260505223053 80 0 0.0 7.0 0.00 0.00 0.00 83 1008.3
20260505221557 80 184 0.9 4.3 0.00 0.00 0.00 83 1008.3
20260505220106 80 252 1.7 7.0 0.00 0.00 0.00 83 1008.4
20260505214601 80 184 0.9 12.2 0.00 0.00 0.00 83 1008.5
20260505213050 81 231 0.9 7.8 0.00 0.00 0.00 82 1008.6
20260505211626 81 0 0.9 8.7 0.00 0.00 0.00 82 1008.8
20260505210050 81 237 0.9 6.1 0.00 0.00 0.00 82 1009.0
20260505204602 81 250 0.9 5.2 0.00 0.00 0.00 82 1009.1
20260505203056 82 248 1.7 7.0 0.00 0.00 0.00 81 1009.2
20260505201552 82 209 1.7 6.1 0.00 0.00 0.00 81 1009.5
20260505200054 82 244 0.9 4.3 0.00 0.00 0.00 81 1009.6
20260505194549 82 0 0.0 4.3 0.00 0.00 0.00 82 1009.8
20260505193055 81 275 0.0 5.2 0.00 0.00 0.00 83 1010.0
20260505191604 80 0 0.0 7.8 0.00 0.00 0.00 84 1010.1
20260505190049 79 239 1.7 7.8 0.00 0.00 0.00 84 1010.1
20260505184554 79 146 0.9 9.6 0.00 0.00 0.00 84 1010.1
20260505183054 79 215 1.7 7.8 0.00 0.00 0.00 84 1010.3
20260505181639 78 191 0.9 5.2 0.00 0.00 0.00 85 1010.3
20260505180104 78 0 0.0 7.0 0.00 0.00 0.00 86 1010.5
20260505174553 78 238 2.6 10.4 0.00 0.00 0.00 84 1010.7